Dewpoint
-3 -3 -10 -11 -13 -14 -15 -15 -15 -15 -15 -17 -18 -18 -19 -19 -20 -20 -20 -19 -18 -19 -20 -16 -9 -6 -6 -6 -6 -5 -5 -4 -4 -4 -3 -3 -3 -2
-6 -5 -9 -13 -14 -12 -10 -13 -15 -15 -13 -15 -17 -19 -19 -19 -20 -19 -18 -17 -18 -19 -20 -14 -7 -6 -6 -6 -6 -5 -5 -5 -5 -4 -4 -3 -3 -3
-6 -2 -6 -3 -11 -14 -15 -15 -16 -16 -14 -16 -17 -18 -17 -18 -21 -18 -18 -17 -20 -22 -21 -14 -7 -7 -7 -7 -7 -6 -6 -5 -5 -4 -4 -4 -4 -3
-1 -3 -6 -9 -9 -10 -15 -17 -18 -16 -15 -15 -14 -14 -13 -14 -13 -13 -14 -17 -19 -20 -17 -10 -8 -8 -7 -7 -6 -6 -6 -6 -6 -5 -5 -5 -5 -4
-6 -1 -1 -9 -12 -17 -19 -19 -18 -17 -16 -13 -11 -11 -10 -10 -11 -12 -13 -16 -17 -15 -14 -13 -13 -13 -10 -7 -7 -7 -7 -7 -7 -6 -6 -6 -6 -5
-2 -2 -5 -10 -17 -21 -21 -19 -18 -17 -12 -11 -10 -8 -8 -10 -10 -11 -11 -14 -13 -13 -13 -12 -13 -13 -12 -13 -12 -12 -12 -11 -8 -7 -7 -7 -6 -6
-12 -15 -19 -21 -22 -22 -21 -19 -12 -9 -11 -9 -7 -8 -9 -10 -10 -11 -12 -11 -11 -12 -13 -12 -12 -12 -13 -12 -12 -12 -12 -12 -8 -7 -7 -7 -6 -6
-19 -20 -22 -23 -24 -24 -22 -18 -14 -9 -8 -8 -8 -8 -9 -9 -11 -11 -10 -9 -9 -11 -12 -11 -12 -12 -12 -12 -12 -12 -12 -10 -8 -8 -7 -7 -7 -6
-20 -21 -24 -25 -23 -22 -21 -19 -14 -11 -8 -8 -8 -9 -10 -11 -10 -9 -9 -9 -9 -11 -11 -11 -11 -11 -12 -12 -12 -12 -13 -12 -9 -8 -7 -7 -7 -7
-22 -23 -21 -21 -23 -22 -17 -10 -10 -9 -9 -10 -10 -10 -9 -9 -9 -9 -9 -10 -10 -11 -11 -11 -11 -11 -11 -11 -12 -12 -12 -12 -12 -8 -8 -7 -7 -7
-20 -19 -20 -22 -22 -18 -9 -8 -8 -9 -11 -11 -12 -11 -11 -10 -11 -11 -11 -10 -10 -10 -10 -11 -11 -10 -11 -11 -12 -12 -11 -11 -11 -10 -9 -8 -8 -8
-23 -23 -21 -19 -16 -8 -8 -9 -10 -13 -12 -11 -13 -12 -12 -12 -11 -11 -10 -10 -10 -11 -10 -10 -10 -10 -11 -11 -11 -11 -11 -12 -11 -11 -11 -10 -9 -8
-24 -23 -20 -15 -9 -9 -9 -11 -15 -10 -10 -12 -12 -12 -11 -11 -11 -10 -10 -10 -9 -9 -10 -10 -10 -11 -11 -10 -10 -11 -11 -11 -11 -11 -11 -11 -10 -9
-21 -18 -15 -11 -12 -17 -19 -18 -12 -11 -12 -11 -11 -11 -11 -10 -10 -10 -10 -9 -9 -10 -10 -9 -10 -10 -10 -11 -11 -11 -10 -10 -11 -11 -10 -11 -11 -10
-14 -12 -14 -18 -19 -19 -17 -13 -12 -11 -11 -11 -10 -10 -10 -9 -10 -10 -10 -10 -10 -10 -10 -10 -10 -9 -10 -10 -10 -10 -10 -11 -10 -10 -10 -11 -10 -10
-15 -17 -18 -19 -18 -15 -12 -11 -11 -10 -10 -10 -10 -9 -9 -9 -9 -9 -9 -10 -10 -11 -11 -10 -10 -9 -10 -9 -9 -10 -10 -9 -10 -10 -10 -10 -9 -8
-16 -19 -19 -18 -13 -11 -11 -11 -10 -10 -10 -10 -9 -9 -9 -8 -9 -9 -9 -9 -9 -9 -10 -11 -10 -9 -9 -10 -10 -10 -10 -10 -10 -10 -9 -8 -8 -8
-20 -18 -17 -13 -11 -11 -10 -10 -10 -10 -10 -9 -9 -8 -8 -8 -8 -9 -8 -9 -9 -9 -10 -10 -9 -9 -10 -10 -10 -9 -10 -10 -9 -9 -8 -9 -8 -9
-18 -16 -12 -11 -11 -10 -10 -10 -10 -9 -9 -9 -8 -8 -8 -8 -8 -8 -9 -9 -9 -9 -9 -9 -8 -9 -10 -10 -10 -9 -9 -9 -8 -8 -8 -8 -8 -8
-17 -13 -11 -11 -10 -10 -10 -10 -10 -9 -9 -9 -8 -8 -8 -8 -8 -9 -9 -9 -9 -9 -9 -9 -8 -8 -9 -9 -9 -9 -8 -8 -8 -8 -7 -7 -7 -7
-15 -12 -11 -11 -10 -10 -9 -9 -9 -9 -8 -8 -8 -8 -8 -8 -8 -9 -9 -9 -9 -9 -9 -8 -8 -7 -7 -8 -8 -8 -7 -6 -6 -7 -7 -7 -7 -8
-12 -11 -11 -10 -10 -9 -9 -9 -9 -9 -8 -8 -8 -8 -8 -8 -8 -8 -8 -8 -9 -8 -8 -8 -8 -7 -7 -8 -8 -7 -7 -7 -6 -6 -6 -6 -6 -6
-11 -10 -10 -10 -9 -9 -9 -9 -9 -9 -8 -8 -8 -8 -8 -8 -8 -8 -8 -9 -8 -8 -8 -8 -8 -8 -7 -7 -7 -7 -6 -6 -6 -6 -7 -6 -6 -6
Wind_Speed
19 16 13 13 14 13 15 17 18 18 25 23 22 22 29 32 33 34 34 33 32 30 29 28 27 27 27 28 29 28 29 30 29 31 31 33 34 33
16 13 13 12 13 16 18 19 20 20 23 25 29 30 31 33 32 33 33 32 31 28 29 28 26 26 27 27 28 28 30 31 32 31 33 33 34 35
14 12 13 14 14 16 18 19 19 22 28 33 32 31 31 33 33 32 33 33 32 30 28 27 25 25 26 27 28 28 29 30 30 31 32 33 33 33
13 13 11 13 18 20 20 21 22 22 28 33 33 32 33 32 33 34 34 33 32 28 27 26 25 26 26 26 27 26 27 29 31 32 33 34 35 34
12 13 15 16 18 19 21 23 23 24 27 31 33 34 33 33 35 36 37 36 33 28 27 28 27 23 22 24 27 29 30 32 32 32 33 34 34 34
13 13 15 16 19 21 22 23 24 26 26 29 32 32 33 35 36 39 41 37 33 29 30 28 24 26 30 29 30 31 31 31 30 31 32 34 33 33
13 13 15 17 20 22 23 23 23 24 26 27 30 34 36 37 38 39 38 35 35 32 32 30 33 36 35 34 32 31 30 29 29 30 32 34 35 35
14 15 18 20 21 21 20 21 21 21 23 27 30 33 36 37 37 34 33 35 37 33 38 43 38 40 37 34 31 31 32 31 32 32 33 34 34 33
16 17 19 19 19 20 21 20 18 20 21 25 31 33 36 33 30 33 32 35 36 40 37 48 42 41 34 32 30 32 29 26 28 28 29 30 30 29
15 17 18 19 21 21 21 20 21 24 26 28 30 31 29 28 30 33 36 39 39 37 33 47 41 39 38 38 34 28 24 25 27 26 26 28 30 32
14 17 20 23 22 20 19 21 26 29 28 26 24 25 27 28 28 31 33 32 40 41 35 32 40 43 45 42 31 29 35 33 31 31 31 31 31 32
18 20 21 21 20 16 19 24 29 26 20 25 25 25 24 26 25 25 27 32 35 37 25 34 40 36 33 36 28 42 39 36 34 32 30 29 29 31
21 22 21 19 15 18 18 20 20 20 24 24 24 25 25 25 25 26 27 29 33 36 36 32 40 40 36 44 46 45 42 40 39 35 32 29 26 26
21 21 20 17 20 19 19 17 17 19 21 24 26 26 26 27 25 26 27 28 30 34 34 33 38 36 38 43 48 47 44 44 40 38 31 20 22 23
19 19 20 20 19 16 15 15 16 18 21 23 24 25 26 27 29 28 29 29 31 30 29 28 31 32 32 37 44 47 48 46 36 31 32 30 28 27
20 20 20 18 16 15 13 13 15 18 20 23 24 24 26 29 30 30 31 32 34 34 27 26 28 29 33 36 39 44 42 42 39 33 32 33 33 30
20 19 17 16 14 13 13 14 16 18 20 21 22 25 28 31 32 31 31 32 34 37 37 31 29 31 32 32 34 37 37 37 37 37 37 39 36 34
19 18 16 15 15 17 18 18 17 19 20 20 22 27 30 33 35 34 33 32 35 35 36 35 36 37 36 37 29 31 38 38 39 39 38 38 41 34
16 14 14 15 16 18 19 19 21 21 19 21 24 27 32 34 34 33 34 34 36 36 37 37 38 37 36 37 42 28 31 41 37 35 34 35 38 36
12 12 13 15 17 19 19 20 22 21 19 22 25 30 32 32 34 34 34 36 37 38 39 38 37 37 36 40 46 44 33 33 35 35 35 33 35 32
11 11 13 15 17 19 19 21 22 20 21 25 26 31 31 32 33 34 36 36 35 36 39 40 38 34 34 36 37 41 36 28 28 29 30 31 32 32
12 13 14 16 18 19 20 22 23 18 21 24 29 31 32 32 33 34 35 38 36 38 39 40 38 36 35 34 36 36 36 33 28 25 21 20 24 26
13 14 16 17 18 19 20 23 22 18 22 27 29 32 34 34 33 34 36 37 36 38 38 39 38 36 33 32 32 33 33 34 35 33 23 21 22 20
Wind_Direction
234 243 249 263 274 278 284 290 291 293 297 296 296 302 304 304 307 309 311 310 310 306 301 298 297 296 294 293 292 290 285 284 283 282 280 278 278 277
225 238 250 264 275 283 287 287 288 288 283 291 298 301 302 304 306 308 309 309 311 306 304 299 297 295 293 293 289 287 287 284 281 281 279 278 277 275
223 237 259 275 284 288 286 285 288 289 287 293 298 302 301 303 305 306 309 311 309 307 305 301 298 295 291 288 287 286 284 285 283 281 280 280 279 277
233 243 265 283 280 284 286 288 290 290 291 296 301 305 306 309 311 312 314 312 311 313 307 304 300 297 294 290 290 289 286 284 281 281 280 279 278 277
239 264 276 278 288 287 290 292 291 291 294 297 302 306 308 312 313 313 316 318 318 315 308 308 309 308 298 298 293 288 285 282 281 280 277 277 276 274
265 275 283 291 288 288 289 291 294 295 295 298 301 305 306 311 311 315 317 316 315 314 312 312 315 311 309 308 302 301 294 289 284 280 276 274 275 273
292 303 295 291 291 292 292 293 292 292 297 302 300 303 305 311 312 314 311 316 315 318 317 318 317 312 311 310 308 302 298 294 287 282 278 275 273 272
293 300 293 290 291 291 290 287 288 295 295 297 300 300 304 308 310 311 314 315 311 319 318 310 312 310 313 310 307 308 307 295 285 283 279 276 274 271
290 292 294 295 296 299 300 299 294 292 289 293 294 297 302 307 312 311 311 306 301 308 311 307 309 309 312 306 308 311 310 299 290 285 282 279 277 274
299 299 301 304 308 309 309 308 303 297 296 297 299 301 305 310 308 303 299 298 299 303 312 304 310 312 315 311 313 311 312 310 304 291 284 281 278 275
306 311 311 311 314 313 316 306 299 299 303 301 296 298 301 304 304 302 302 303 305 309 313 303 311 314 314 313 316 317 317 315 308 299 287 282 278 276
313 313 314 314 314 316 303 299 297 307 311 307 313 311 311 310 308 304 305 304 308 311 310 307 308 313 314 307 307 312 311 311 309 307 302 294 282 275
314 312 313 314 319 308 305 299 308 314 301 309 314 316 317 316 315 312 311 308 306 300 310 308 302 303 296 303 304 309 312 313 312 310 306 299 288 272
313 315 318 320 312 317 316 317 315 312 317 318 319 322 323 324 322 318 312 307 303 300 306 305 300 304 303 302 301 309 311 310 310 309 309 302 296 292
317 318 318 321 322 323 322 322 319 319 319 320 322 326 328 328 326 324 318 317 311 310 310 310 309 309 303 300 302 305 309 311 309 306 308 305 300 293
319 326 325 326 326 326 325 323 322 324 327 326 326 330 331 332 332 332 327 326 321 323 327 324 321 316 309 305 305 303 307 299 310 311 309 305 301 295
321 326 328 329 332 332 333 333 333 332 329 329 331 333 334 334 334 335 333 330 325 326 325 329 327 322 316 312 308 309 310 310 313 313 311 308 305 301
327 329 333 336 337 337 336 337 339 336 334 334 335 336 336 335 335 337 335 332 328 328 328 332 332 329 328 323 314 309 315 310 316 314 308 296 297 300
328 331 334 336 336 337 336 336 338 340 336 336 337 338 339 338 336 336 337 336 332 331 331 334 333 329 312 305 326 312 296 310 311 306 305 298 295 300
327 330 332 333 334 335 336 336 337 337 337 336 339 340 339 341 342 342 340 337 335 335 333 336 335 332 316 307 309 323 331 312 314 312 313 312 304 306
331 334 332 332 333 334 334 335 335 336 338 337 338 338 343 343 344 343 341 340 337 336 333 335 337 336 329 331 315 323 335 338 331 321 319 311 309 308
333 336 335 333 332 333 333 333 334 335 338 342 340 339 342 343 344 341 340 339 339 340 336 336 338 340 339 332 324 330 336 342 348 342 333 319 308 284
335 336 337 335 333 332 331 332 332 337 340 341 339 342 345 342 342 342 341 342 341 340 339 338 342 345 342 342 339 340 346 348 348 345 344 341 326 309
Height
1494 1496 1496 1498 1499 1499 1499 1499 1499 1496 1493 1492 1492 1488 1485 1481 1478 1474 1470 1466 1463 1459 1455 1452 1449 1448 1447 1445 1444 1442 1440 1438 1437 1435 1433 1432 1431 1430
1490 1490 1492 1493 1495 1494 1493 1492 1492 1492 1489 1487 1485 1482 1479 1475 1471 1467 1463 1459 1455 1451 1448 1444 1442 1440 1439 1437 1435 1433 1431 1430 1428 1426 1424 1423 1421 1420
1486 1485 1488 1489 1490 1489 1488 1486 1486 1486 1482 1479 1477 1476 1472 1468 1464 1460 1456 1451 1447 1444 1439 1435 1434 1432 1431 1428 1426 1424 1421 1419 1418 1416 1415 1413 1412 1411
1479 1483 1482 1483 1486 1484 1483 1482 1481 1480 1477 1472 1469 1467 1464 1461 1456 1451 1448 1445 1439 1436 1432 1428 1426 1424 1421 1419 1416 1415 1413 1410 1408 1406 1405 1403 1403 1401
1478 1478 1477 1479 1480 1480 1478 1477 1475 1473 1471 1466 1461 1460 1456 1453 1447 1443 1439 1434 1431 1428 1424 1421 1417 1415 1412 1410 1409 1406 1403 1400 1398 1396 1394 1393 1392 1390
1476 1474 1475 1474 1475 1475 1473 1472 1469 1466 1465 1461 1457 1454 1450 1447 1442 1436 1429 1428 1423 1421 1417 1412 1410 1407 1404 1402 1399 1395 1392 1388 1386 1384 1382 1381 1380 1379
1476 1472 1473 1472 1471 1469 1467 1466 1464 1461 1459 1455 1452 1448 1444 1440 1436 1431 1425 1420 1416 1414 1407 1404 1401 1398 1394 1391 1388 1385 1382 1379 1376 1374 1372 1370 1368 1367
1474 1470 1471 1470 1467 1465 1463 1461 1460 1457 1453 1450 1447 1442 1438 1434 1430 1425 1420 1415 1407 1407 1401 1395 1395 1388 1386 1382 1379 1375 1372 1369 1366 1364 1361 1358 1357 1356
1468 1467 1467 1465 1463 1460 1458 1455 1453 1452 1449 1446 1441 1438 1432 1429 1424 1419 1415 1409 1404 1401 1397 1384 1385 1379 1378 1374 1371 1367 1363 1358 1356 1353 1351 1349 1347 1346
1465 1465 1463 1461 1458 1455 1451 1449 1447 1445 1443 1439 1435 1430 1427 1423 1420 1415 1409 1402 1397 1394 1394 1376 1375 1369 1366 1362 1361 1358 1355 1352 1348 1345 1343 1340 1338 1336
1461 1460 1458 1456 1452 1449 1447 1444 1441 1438 1436 1432 1429 1426 1422 1418 1415 1408 1403 1397 1388 1385 1385 1376 1367 1360 1356 1350 1349 1348 1345 1342 1338 1335 1332 1329 1327 1324
1457 1456 1454 1451 1447 1446 1444 1439 1434 1431 1428 1424 1422 1419 1416 1412 1408 1404 1398 1392 1386 1376 1376 1371 1362 1360 1345 1340 1338 1338 1335 1333 1328 1324 1321 1318 1315 1313
1453 1452 1449 1446 1444 1441 1438 1433 1429 1426 1422 1419 1415 1412 1409 1405 1401 1397 1393 1388 1381 1374 1371 1367 1357 1354 1350 1334 1326 1327 1325 1320 1316 1312 1309 1307 1304 1302
1450 1447 1444 1441 1437 1434 1431 1428 1424 1421 1418 1414 1410 1406 1402 1398 1395 1391 1386 1382 1376 1369 1364 1361 1352 1348 1341 1331 1321 1317 1314 1310 1306 1300 1298 1295 1294 1293
1445 1442 1439 1435 1432 1429 1426 1424 1421 1418 1414 1411 1406 1402 1398 1393 1389 1384 1379 1374 1367 1363 1358 1353 1346 1340 1335 1326 1316 1309 1303 1298 1296 1291 1288 1285 1283 1281
1441 1438 1435 1432 1429 1426 1424 1422 1419 1415 1411 1407 1402 1399 1394 1389 1383 1378 1371 1366 1358 1352 1351 1346 1339 1333 1325 1319 1312 1300 1297 1290 1285 1283 1280 1275 1272 1269
1437 1434 1432 1429 1426 1424 1422 1419 1415 1411 1407 1403 1399 1395 1390 1384 1378 1373 1367 1360 1353 1345 1338 1336 1332 1325 1318 1311 1303 1294 1287 1282 1278 1273 1270 1263 1259 1257
1434 1431 1429 1427 1424 1421 1418 1415 1411 1407 1404 1400 1396 1391 1385 1379 1372 1367 1362 1356 1347 1340 1332 1327 1320 1313 1307 1299 1296 1287 1279 1274 1269 1264 1261 1255 1248 1246
1432 1429 1427 1425 1422 1420 1416 1412 1407 1404 1401 1397 1393 1388 1382 1375 1369 1362 1356 1349 1341 1335 1328 1321 1314 1308 1301 1291 1285 1284 1275 1267 1261 1256 1252 1247 1240 1233
1429 1427 1425 1423 1420 1417 1413 1409 1405 1401 1398 1394 1390 1384 1379 1372 1364 1358 1351 1345 1337 1329 1322 1316 1310 1304 1298 1288 1277 1268 1268 1261 1255 1247 1240 1236 1229 1224
1428 1426 1423 1421 1418 1414 1410 1407 1403 1399 1395 1391 1386 1381 1375 1369 1361 1355 1349 1342 1335 1327 1318 1311 1305 1299 1292 1283 1274 1264 1257 1254 1248 1241 1234 1228 1221 1214
1426 1424 1421 1418 1415 1411 1408 1404 1400 1396 1392 1387 1382 1376 1371 1365 1359 1352 1346 1338 1330 1323 1315 1307 1300 1293 1285 1279 1270 1261 1251 1244 1241 1236 1230 1224 1217 1209
1424 1422 1419 1416 1412 1409 1405 1401 1397 1393 1389 1384 1378 1373 1367 1361 1356 1349 1342 1335 1328 1320 1312 1303 1295 1289 1281 1274 1267 1258 1250 1242 1234 1227 1223 1219 1212 1206